sat.trackr.live / text

‹ back to catalog

STARLINK-1856

NORAD 47143 · 2020-088X

PAYLOAD ACTIVE UNKNOWN

§ Identity

Operator
Country
US
Launch date
2020-11-25
Launch site
AFETR
Launch vehicle
Mass (kg)
RCS (m²)

Purposes: comms

External: N2YO · Heavens-Above · Gunter

§ Orbital elements

Epoch: 2026-05-25T06:00:02.000160Z

Period
91.89 min
Inclination
53.0451°
Eccentricity
0.0002870
Mean motion
15.67044909 rev/d
Perigee alt
365.4 km
Apogee alt
369.3 km
Semi-major
6,745.5 km
B*
6.5164e-4
RAAN
261.5425°
Arg perigee
1.3148°
Mean anomaly
181.1367°
Rev number
594

§ Raw data

STARLINK-18561 47143U 20088X   26145.25002315  .00070832  00000+0  65164-3 0  99972 47143  53.0451 261.5425 0002870   1.3148 181.1367 15.67044909  5948

JSON: /api/v1/satellites/47143 · /tle

For live sub-satellite position, see the globe view (requires WebGL).

§ Visibility from observer

Set your observer location to see the next 7 days of passes ≥ 10°. The values pass through the URL so the page stays shareable.

No JS? Fill the form by hand. The geolocation button needs JavaScript.